Skip Page Navigation
NASA JPL Caltech
NASA Logo - Jet Propulsion Laboratory + View the NASA Portal
+ Center for Near-Earth Object Studies
JPL Home Earth Solar System Stars & Galaxies Technology
JPL Solar System Dynamics
BODIES ORBITS EPHEMERIDES TOOLS PHYSICAL DATA DISCOVERY FAQ SITE MAP
IMPORTANT: The SSD Announcement email list is now available. Major changes are coming in the near future, including possible hostname and/or URL changes. To be notified of such changes, subscribe to this email list.

Please visit this page for more details.


JPL Small-Body Database Browser
Search: [ help ]  
17295 (2827 P-L)
Classification: Main-belt Asteroid          SPK-ID: 2017295
Ephemeris | Orbit Diagram | Orbital Elements | Mission Design | Physical Parameters | Discovery Circumstances ]

[ show orbit diagram ]
Orbital Elements at Epoch 2459000.5 (2020-May-31.0) TDB
Reference: JPL 23 (heliocentric ecliptic J2000)
 Element Value Uncertainty (1-sigma)   Units 
e .09940814575317206 3.5016e-08  
a 2.374901002535466 9.5757e-09 au
q 2.138816497526066 8.322e-08 au
i 4.957775032455517 3.9499e-06 deg
node 27.72750829625181 4.6623e-05 deg
peri 199.5189482928773 5.1299e-05 deg
M 247.0631613175477 2.3277e-05 deg
tp 2459419.872375058624
(2021-Jul-24.37237506)
8.733e-05 TDB
period 1336.800788674478
3.66
8.0851e-06
2.214e-08
d
yr
n .2692996615875448 1.6287e-09 deg/d
Q 2.610985507544866 1.0528e-08 au
  Orbit Determination Parameters
   # obs. used (total)      1204  
   data-arc span      21675 days (59.34 yr)  
   first obs. used      1960-09-24  
   last obs. used      2020-01-28  
   planetary ephem.      DE431  
   SB-pert. ephem.      SB431-N16  
   condition code      0  
   norm. resid. RMS      .50904  
   source      ORB  
   producer      Otto Matic  
   solution date      2020-Feb-22 22:00:32  

Additional Information
 Earth MOID = 1.13002 au 
 Jupiter MOID = 2.36816 au 
 T_jup = 3.530 
[ show covariance matrix ]

Ephemeris | Orbit Diagram | Orbital Elements | Mission Design | Physical Parameters | Discovery Circumstances ]

Physical Parameter Table
Parameter Symbol Value Units Sigma Reference Notes
absolute magnitude H 15.1   n/a MPO416893  
diameter diameter 2.185 km 0.323 urn:nasa:pds:neowise_diameters_albedos::2.0[mainbelt] (http://adsabs.harvard.edu/abs/2011ApJ...741...68M)  
geometric albedo albedo 0.370   0.136 urn:nasa:pds:neowise_diameters_albedos::2.0[mainbelt] (http://adsabs.harvard.edu/abs/2011ApJ...741...68M)  

17295 (2827 P-L)          Discovered 1960-Sep-24 by van Houten, C. J., van Houten-Groeneveld, I., Gehrels, T. at Palomar
Reference: 20000913/Numbers.arcLast Updated: 2004-04-19

Alternate Designations
 2827 P-L = 1993 TC41 
Ephemeris | Orbit Diagram | Orbital Elements | Mission Design | Physical Parameters | Discovery Circumstances ]
ABOUT SSD CREDITS/AWARDS PRIVACY/COPYRIGHT GLOSSARY LINKS
FirstGov 2020-Mar-29 03:48 UT
(server date/time)  
NASA Home Page
Site Manager:   Ryan S. Park
Webmaster  Alan B. Chamberlin